Flag for Caribbean Netherlands

Past Weather in Kralendijk, Bonaire, Caribbean Netherlands — Yesterday and Last 2 Weeks

Now
90 °F

Scattered clouds.


Feels Like: 98 °F
Forecast: N/A
Wind: 22 mph from East

Location: Flamingo Airport - Bonaire

Current Time: Jul 4, 2020 at 3:09:38 pm

Latest Report: Jul 4, 2020 at 1:55 pm


Visibility: N/A

Pressure: 29.89 "Hg

Humidity: 59%

Dew Point: 73 °F

Location of KralendijkLocation

Past Weather in Kralendijk — Graph

°F

Kralendijk Temperature Yesterday

Maximum temperature yesterday: 90 °F (at 9:55 am)
Minimum temperature yesterday: 82 °F (at 12:55 am)
Average temperature yesterday: 85 °F

High & Low Weather Summary for the Past Weeks

 TemperatureHumidityPressure
High91 °F (Jun 24, 12:55 pm)94% (Jun 28, 6:55 am)29.98 "Hg (Jun 28, 6:55 am)
Low79 °F (Jun 27, 4:55 pm)55% (Jun 24, 1:55 pm)29.80 "Hg (Jun 27, 4:55 pm)
Average84 °F77%29.90 "Hg
* Reported Jun 19 1:55 pm — Jul 4 1:55 pm, Kralendijk. Weather by CustomWeather, © 2020

Note: Actual official high and low records may vary slightly from our data, if they occured in-between our weather recording intervals... More about our weather records

Kralendijk Weather History for the Previous 24 Hours

Scroll right to see more
 ConditionsComfort  
Time TempWeatherWind HumidityBarometerVisibility
1:55 pm
Sat, Jul 4
90 °FScattered clouds.22 mph59%29.89 "HgN/A
12:55 pm90 °FPartly sunny.20 mph63%29.89 "HgN/A
11:55 am88 °FPartly sunny.18 mph66%29.92 "HgN/A
10:55 am88 °FScattered clouds.20 mph66%29.92 "HgN/A
9:55 am86 °FPartly sunny.20 mph70%29.92 "HgN/A
8:55 am86 °FPassing clouds.17 mph70%29.92 "HgN/A
7:55 am84 °FPartly sunny.16 mph74%29.89 "HgN/A
6:55 am82 °FWarm.12 mph79%29.89 "HgN/A
5:55 am81 °FPassing clouds.14 mph84%29.89 "HgN/A
4:55 am81 °FPassing clouds.15 mph84%29.89 "HgN/A
3:55 am81 °FWarm.16 mph84%29.89 "HgN/A
2:55 am81 °FWarm.17 mph84%29.89 "HgN/A
1:55 am82 °FPassing clouds.17 mph79%29.89 "HgN/A
12:55 am82 °FWarm.17 mph79%29.89 "HgN/A
11:55 pm
Fri, Jul 3
82 °FPassing clouds.18 mph79%29.92 "HgN/A
10:55 pm82 °FPartly cloudy.17 mph79%29.92 "HgN/A
9:55 pm82 °FWarm.20 mph79%29.89 "HgN/A
8:55 pm82 °FPassing clouds.18 mph79%29.86 "HgN/A
7:55 pm82 °FPassing clouds.21 mph79%29.86 "HgN/A
6:55 pm84 °FScattered clouds.22 mph74%29.83 "HgN/A
5:55 pm86 °FPassing clouds.21 mph70%29.83 "HgN/A
4:55 pm86 °FBroken clouds.24 mph70%29.80 "HgN/A
3:55 pm88 °FScattered clouds.24 mph66%29.83 "HgN/A
Weather by CustomWeather, © 2020

See weather overview